User: anonymous   Login
Location: Unspecified
(0.0000°N, 0.0000°E)
Time: 00:08:20
(UTC+00:00)
Language:

MAST - Orbit

View from above orbital plane
View from above orbital plane
View from above satellite
View from above satellite

Ground track
Ground track

The orbit data is extracted from the following two-line orbital elements,

1 31126U 07012K   17265.77141637  .00000093  00000-0  30242-4 0  9997
2 31126  98.0706 213.1655 0089069 233.6380 125.6576 14.56561147554089
Epoch (UTC): 22 September 2017 18:30:50
Eccentricity: 0.0089069
inclination: 98.0706°
perigee height: 641 km
apogee height: 767 km
right ascension of ascending node: 213.1655°
argument of perigee: 233.6380°
revolutions per day: 14.56561147
mean anomaly at epoch: 125.6576°
orbit number at epoch: 55408

The dashed part of the orbit path shows where the satellite is in the earth's shadow,  

DLR